Location: Unspecified
(42.9300°N, 71.1866°W)
Time: 05:21:45
(UTC-04:00)

CZ-3 Stage 3 - Visible Passes

Search period start: 30 March 2015 00:00
Search period end: 09 April 2015 00:00
Orbit: 423 x 34806 km, 31.0° (Epoch: 27 March)

Date Brightness Start Highest point End Pass type
(mag) Time Alt. Az. Time Alt. Az. Time Alt. Az.
30 Mar 6.8 12:31:24 10° SSW 21:17:02 55° SW 21:49:28 19° SSE visible
02 Apr 6.8 12:26:16 10° SW 21:11:38 53° SW 21:45:15 16° SSE visible
05 Apr 6.8 12:21:06 10° SW 21:06:06 52° SW 21:40:57 13° SSE visible
08 Apr 6.9 12:15:55 10° SW 21:00:27 51° SW 21:36:35 11° SSE visible
